Location: Unspecified
(38.5482°N, 1.4063°W)
Time: 03:32:46
(UTC+00:00)

Hubble Space Telescope - Visible Passes

Search period start: 28 February 2024 00:00
Search period end: 09 March 2024 00:00
Orbit: 516 x 519 km, 28.5° (Epoch: 27 February)

Date Brightness Start Highest point End Pass type
(mag) Time Alt. Az. Time Alt. Az. Time Alt. Az.
28 Feb 2.6 18:54:22 10° SW 18:57:15 19° S 18:59:43 12° SE visible
29 Feb 2.7 18:36:52 10° SW 18:39:46 19° S 18:42:40 10° SE visible
29 Feb 3.4 20:17:28 10° SW 20:18:16 13° SW 20:18:16 13° SW visible
01 Mar 3.1 20:00:10 10° SW 20:01:55 14° SSW 20:01:55 14° SSW visible
02 Mar 3.1 19:42:55 10° SW 19:44:49 13° SSW 19:45:35 12° S visible
03 Mar 3.2 19:25:44 10° SW 19:27:17 12° SSW 19:28:49 10° S visible
04 Mar 3.4 19:08:47 10° SSW 19:09:44 11° SSW 19:10:40 10° S visible
